Tracking 17150 objects as of 4-August-2015
HD Live streaming from Space Station

ATLAS CENTAUR DEB

Track ATLAS CENTAUR DEB now!
ATLAS CENTAUR DEB is classified as:


NORAD ID: 25253
Int'l Code: 1978-068C
Perigee: 837.0 km
Apogee: 35,621.7 km
Inclination: 21.8 °
Period: 640.0 minutes
Semi major axis: 24600 km
RCS: 0.1092 m2 (medium)
Launch date: June 29, 1978
Source: United States (US)

Note: This is SATELLITE DEBRIS
Your satellite tracking list
Your tracking list is empty





NASA's NSSDC Master Catalog

Two Line Element Set (TLE):
1 25253U 78068C   15206.32891046  .00000315  00000-0  15452-1 0  9990
2 25253 021.7809 281.5709 7069947 279.9822 021.1735 02.25004475148336

Source of the keplerian elements: AFSPC

N2YO: 359